This demonstration page uses our WeatherBlox Daily Observations layout. Learn more.

Left ArrowRight Arrow

Hourly Observations for January 7, 2016

Temp ( °F °C ) Dew Point ( °F °C ) Humidity (%) Winds ( mph kmh ) Pressure ( in mb ) Visibility ( mi km ) Precip ( " mm )
12:07 am 00:07 Cloudy 42 5.6 22 -5.6 45 45 ENE 6 9 30.30 1026 10 16 0.00 0.00
12:53 am 00:53 Cloudy 43 6.1 23 -5 45 45 ENE 8 13 30.28 1026 10 16 0.00 0.00
1:53 am 01:53 Cloudy 42 5.6 24 -4.4 49 49 NE 7 11 30.27 1025 10 16 0.00 0.00
2:37 am 02:37 Cloudy 42 5.6 25 -3.9 51 51 ENE 12 19 30.24 1024 10 16 0.00 0.00
2:53 am 02:53 Cloudy 42 5.6 25 -3.9 51 51 ENE 7 11 30.24 1024 10 16 0.00 0.00
3:37 am 03:37 Cloudy 43 6.1 25 -3.9 49 49 E 10 17 30.21 1023 10 16 0.00 0.00
3:53 am 03:53 Cloudy 43 6.1 26 -3.3 51 51 ENE 12 19 30.22 1023 10 16 0.00 0.00
4:13 am 04:13 Mostly Cloudy 42 5.6 26 -3.3 53 53 ENE 10 17 30.21 1023 10 16 0.00 0.00
4:53 am 04:53 Cloudy 42 5.6 27 -2.8 55 55 ENE 10 17 30.19 1022 10 16 0.00 0.00
5:53 am 05:53 Cloudy 43 6.1 28 -2.2 56 56 E 7 11 30.18 1022 10 16 0.00 0.00
6:53 am 06:53 Cloudy 42 5.6 29 -1.7 60 60 ENE 8 13 30.19 1022 10 16 0.00 0.00
7:53 am 07:53 Cloudy 41 5 29 -1.7 62 62 NE 6 9 30.20 1023 10 16 0.00 0.00
8:53 am 08:53 Mostly Sunny 44 6.7 30 -1.1 58 58 NNE 7 11 30.21 1023 10 16 0.00 0.00
9:53 am 09:53 Partly Cloudy 46 7.8 31 -0.6 56 56 NE 9 15 30.20 1023 10 16 0.00 0.00
10:53 am 10:53 Sunny 50 10 33 0.6 52 52 ENE 7 11 30.21 1023 10 16 0.00 0.00
11:53 am 11:53 Cloudy 52 11.1 34 1.1 50 50 ENE 6 9 30.17 1022 10 16 0.00 0.00
12:53 pm 12:53 Mostly Cloudy 57 13.9 40 4.4 53 53 E 12 19 30.12 1020 10 16 0.00 0.00
1:53 pm 13:53 Cloudy 58 14.4 42 5.6 56 56 ENE 9 15 30.07 1018 10 16 0.00 0.00
2:53 pm 14:53 Partly Cloudy 60 15.6 44 6.7 56 56 ESE 9 15 30.04 1017 10 16 0.00 0.00
3:53 pm 15:53 Mostly Cloudy 60 15.6 44 6.7 56 56 E 7 11 30.01 1016 10 16 0.00 0.00
4:53 pm 16:53 Cloudy 59 15 44 6.7 58 58 E 7 11 30.02 1017 10 16 0.00 0.00
5:53 pm 17:53 Mostly Cloudy 58 14.4 44 6.7 60 60 E 6 9 30.01 1016 10 16 0.00 0.00
6:53 pm 18:53 Cloudy 58 14.4 45 7.2 62 62 E 3 6 30.03 1017 10 16 0.00 0.00
7:43 pm 19:43 Cloudy 57 13.9 43 6.1 60 60 E 5 7 30.03 1017 10 16 0.00 0.00
7:53 pm 19:53 Cloudy 57 13.9 43 6.1 60 60 E 5 7 30.04 1017 10 16 0.00 0.00
8:33 pm 20:33 Partly Cloudy 56 13.3 43 6.1 62 62 E 5 7 30.03 1017 10 16 0.00 0.00
8:53 pm 20:53 Partly Cloudy 57 13.9 43 6.1 60 60 E 6 9 30.04 1017 10 16 0.00 0.00
9:00 pm 21:00 Mostly Cloudy 57 13.9 43 6.1 60 60 E 5 7 30.06 1018 10 16 0.00 0.00
9:53 pm 21:53 Cloudy 56 13.3 43 6.1 62 62 E 6 9 30.03 1017 10 16 0.00 0.00
10:53 pm 22:53 Cloudy 56 13.3 43 6.1 62 62 E 7 11 30.02 1017 10 16 0.00 0.00
11:53 pm 23:53 Cloudy 56 13.3 43 6.1 62 62 E 9 15 30.02 1017 10 16 0.00 0.00

Powered by AerisWeather